Notices

What's New in latest Release from April 7th, 2021:

- Updated Glossary, including Speed of Maximum Gust, and Total Hourly Precipitation

- Updated national and regional climate services offices contacts and prices information

- Addition of station inventory lists for 1981-2010, 1971-2000, and 1961-1990 Normals.

If you haven't already, please take our survey and provide feedback about our website: https://eccc.sondage-survey.ca/f/LanguageSelection.aspx?s=442ca660-fcf1-47c0-95a9-59707d6fd709

Hourly Data Report for April 04, 2017

KUGAARUK CLIMATE
NUNAVUT

68°32'15.060" N
89°47'47.020" W
15.80 m
2303094
71407
NBB

Download Data

Hourly Data (April 2017)
Hourly Data Report for April 4, 2017
TIME
LST
Temp Definition
°C
Dew Point Definition
°C
Rel Hum Definition
%
Precip. Amount Definition
mm

Wind Dir Definition
10's deg

Wind Spd Definition
km/h
Visibility Definition
km
Stn Press Definition
kPa
Hmdx Definition


Wind Chill Definition


Weather Definition


00:00 -15.2 -17.6 82 0.0 27 15   101.32   -23 LegendNANA
01:00 -15.5 -17.7 83 0.0 25 13   101.32   -23 LegendNANA
02:00 -15.4 -18.5 77 0.0 22 19   101.30   -24 LegendNANA
03:00 -15.1 -18.1 77 0.0 21 14   101.30   -23 LegendNANA
04:00 -15.2 -18.3 77 0.0 23 25   101.31   -25 LegendNANA
05:00 -15.3 -18.0 80 0.0 20 23   101.29   -25 LegendNANA
06:00 -14.5 -17.3 79 0.0 21 22   101.26   -24 LegendNANA
07:00 -14.3 -17.3 78 0.0 22 20   101.25   -23 LegendNANA
08:00 -13.4 -16.9 75 0.0 22 20   101.26   -22 LegendNANA
09:00 -13.2 -16.5 76 0.0 22 23   101.24   -23 LegendNANA
10:00 -12.6 -16.2 74 0.0 22 21   101.23   -21 LegendNANA
11:00 -11.9 -15.8 73 0.0 23 17   101.23   -20 LegendNANA
12:00 -11.6 -15.3 74 0.0 21 18   101.24   -19 LegendNANA
13:00 -11.4 -15.0 75 0.0 21 20   101.26   -20 LegendNANA
14:00 -12.8 -16.8 71 0.0 28 20   101.27   -21 LegendNANA
15:00 -13.8 -19.3 63 0.0 27 14   101.29   -21 LegendNANA
16:00 -14.9 -19.6 67 0.0 24 11   101.31   -21 LegendNANA
17:00 -15.5 -19.8 70 0.0 27 6   101.33   -20 LegendNANA
18:00 -16.5 -19.2 79 0.2 33 2   101.37   -18 LegendNANA
19:00 -16.7 -19.0 83 0.0 29 7   101.36   -22 LegendNANA
20:00 -17.1 -19.3 83 0.0 28 2   101.36   -19 LegendNANA
21:00 -17.4 -19.7 82 0.0 3 3   101.36   -20 LegendNANA
22:00 -16.3 -19.0 80 0.0 23 14   101.33   -24 LegendNANA
23:00 -17.8 -20.4 80 0.0 23 19   101.32   -27 LegendNANA

Notes on Data Quality.

Legend

  • E = Estimated
  • M = Missing
  • NA = Not Available*
  • [empty] = Indicates an unobserved value
Date modified: